889  
ASUS41 KGYX 261410  
RWRGYX  
WEATHER ROUNDUP FOR MAINE AND NEW HAMPSHIRE  
NATIONAL WEATHER SERVICE GRAY ME  
1000 AM EDT WED JUL 26 2017  
 
MEZ002-005-006-010-012-015-018-020-021-024-026-027-029-261500-  
MAINE  
 
CITY SKY/WX TMP DP RH WIND PRES REMARKS
 
PORTLAND SUNNY 75 53 46 VRB5 30.22F  
SANFORD SUNNY 74 53 48 NE3 30.24  
BAR HARBOR SUNNY 70 58 65 E3 30.21S  
WISCASSET SUNNY 75 55 49 VRB3 30.23S  
ROCKLAND MOSUNNY 70 56 61 VRB3 30.21S  
FRYEBURG SUNNY 72 58 61 S3 30.24F  
LEWISTONAUBURN SUNNY 72 56 57 VRB5 30.23S  
AUGUSTA SUNNY 73 53 49 N7 30.23S  
WATERVILLE SUNNY 71 55 56 VRB5 30.20F  
BANGOR SUNNY 73 54 51 VRB3 30.22S  
GREENVILLE N/A N/A N/A N/A MISG 30.22F  
MILLINOCKET SUNNY 74 52 46 W5 30.21F  
HOULTON SUNNY 71 48 43 NW3 30.19F  
PRESQUE ISLE SUNNY 70 55 59 CALM 30.20F  
FRENCHVILLE SUNNY 67 52 58 SW3 30.19S  
CARIBOU SUNNY 71 53 52 SW3 30.18F  

 
 
NHZ002-005-008-009-011-012-014-261500-  
NEW HAMPSHIRE  
 
CITY SKY/WX TMP DP RH WIND PRES REMARKS
 
PORTSMOUTH SUNNY 74 58 59 CALM 30.22R  
ROCHESTER SUNNY 73 55 53 CALM 30.23R  
NASHUA SUNNY 71 59 65 N5 30.25S  
MANCHESTER MOSUNNY 72 56 57 VRB3 30.23S  
CONCORD SUNNY 70 59 68 VRB3 30.25S  
LACONIA SUNNY 70 58 65 CALM 30.25F  
PLYMOUTH FAIR 67 58 72 NW3 30.25F  
BERLIN SUNNY 65 54 67 CALM 30.25F  
WHITEFIELD SUNNY 64 56 75 CALM 30.26F  
JAFFREY SUNNY 70 59 68 CALM 30.27S  
KEENE CLOUDY 60 58 92 SW3 30.27F  
LEBANON MOSUNNY 62 56 80 CALM 30.27S  
MT WASHINGTON MOSUNNY 50 41 71 S5 N/A  

 
 
VTZ005-007-008-261500-  
VERMONT  
 
CITY SKY/WX TMP DP RH WIND PRES REMARKS
 
ST JOHNSBURY N/A 59 57 93 MISG 30.25F  
MONTPELIER MOSUNNY 59 59 100 CALM 30.30F  
BURLINGTON MOSUNNY 70 59 68 SW9 30.23F  

 
 
MAZ007-012-024-CTZ003-RIZ002-NYZ038-NYZ072-261500-  
SOUTHERN NEW ENGLAND AND NY  
 
CITY SKY/WX TMP DP RH WIND PRES REMARKS
 
BOSTON SUNNY 70 60 70 SE6 30.23S  
WORCESTER SUNNY 71 49 45 VRB3 30.27S  
NANTUCKET SUNNY 69 58 67 NE10 30.23S  
PROVIDENCE MOSUNNY 72 59 63 NE3 30.25S  
HARTFORD MOSUNNY 68 59 73 N6 30.26F  
ALBANY CLOUDY 62 59 90 VRB3 30.26F FOG  
NEW YORK CITY MOSUNNY 71 57 61 NE8 30.25S  

 
 
ANZ081-ANZ082-ANZ150-NHZ014-MEZ023>029-261500-  
COASTAL MARINE OBSERVATIONS  
 
STATION/POSITION TIME TEMP WIND PRES WAVE
 
AIR SEA DIR/SP/G HT/PER  
(UTC) (F) (DEG/KT/KT) (MB) (FT/S)  
MOUNT DESERT ROC 1400 56 1023.0S  
MATINICUS ROCK 1300 57 20/ 6/ 7 1022.5S  
ISLE OF SHOALS 1300 64 340/ 3/ 4 1023.2S  
JEFFREYS LEDGE 1306 64 N/A 3/ 7  
CASHES LEDGE BUO 1350 68 61 1023.0F 4/ 6  
GEORGES BANK BUO 1250 61 63 1021.3 5/ 8  

 
   
............KEY...........
 
 
WCI - WIND CHILL  
TC - TEMPERATURE IN CELSIUS  
VSB - VISIBILITY
IN MILES  
HX - HEAT INDEX  
FAIR- INDICATES FEW OR NO CLOUDS BELOW 12,000 FT, WITH NO  
SIGNIFICANT WEATHER AND/OR S TO VISIBILITY.  
 
 
 
CLICK HERE TO GO TO PREVIOUS BULLETINS.

The Nexlab ME Page
The Nexlab NH Page Main Text Page